| time (UTC) | temp F | wind direction | speed MPH | gust MPH | rain 1hr in | rain 24hr in | rain mn in | humidity % | barometer mb |
| 20260505050107 | 66 | 258 | 11.0 | 21.0 | 0.00 | 0.00 | 0.00 | 63 | 1010.0 |
| 20260505041531 | 67 | 259 | 12.0 | 20.0 | 0.00 | 0.00 | 0.00 | 60 | 1009.4 |
| 20260505033107 | 68 | 257 | 11.0 | 17.0 | 0.00 | 0.00 | 0.00 | 57 | 1009.1 |
| 20260505031528 | 69 | 255 | 12.0 | 17.0 | 0.00 | 0.00 | 0.00 | 56 | 1008.7 |
| 20260505030108 | 70 | 253 | 12.0 | 19.0 | 0.00 | 0.00 | 0.00 | 55 | 1008.5 |
| 20260505023033 | 72 | 251 | 11.0 | 18.0 | 0.00 | 0.00 | 0.00 | 52 | 1008.3 |
| 20260505021530 | 73 | 247 | 12.0 | 19.0 | 0.00 | 0.00 | 0.00 | 51 | 1008.2 |
| 20260505014532 | 74 | 253 | 12.0 | 20.0 | 0.00 | 0.00 | 0.00 | 50 | 1008.2 |
| 20260505013032 | 75 | 256 | 12.0 | 21.0 | 0.00 | 0.00 | 0.00 | 49 | 1008.1 |
| 20260505010034 | 75 | 257 | 12.0 | 20.0 | 0.00 | 0.00 | 0.00 | 48 | 1008.1 |
| 20260505003031 | 75 | 258 | 13.0 | 24.0 | 0.00 | 0.00 | 0.00 | 48 | 1008.1 |
| 20260505001533 | 76 | 254 | 13.0 | 21.0 | 0.00 | 0.00 | 0.00 | 47 | 1008.1 |
| 20260504234531 | 76 | 248 | 13.0 | 21.0 | 0.00 | 0.00 | 0.00 | 47 | 1008.0 |
| 20260504233031 | 76 | 252 | 13.0 | 24.0 | 0.00 | 0.00 | 0.00 | 46 | 1008.0 |
| 20260504231529 | 76 | 253 | 11.0 | 18.0 | 0.00 | 0.00 | 0.00 | 47 | 1008.2 |
| 20260504230033 | 76 | 258 | 12.0 | 19.0 | 0.00 | 0.00 | 0.00 | 48 | 1008.5 |
| 20260504223030 | 75 | 254 | 12.0 | 20.0 | 0.00 | 0.00 | 0.00 | 49 | 1008.7 |
| 20260504220032 | 75 | 253 | 15.0 | 24.0 | 0.00 | 0.00 | 0.00 | 49 | 1008.7 |
| 20260504214532 | 75 | 258 | 12.0 | 21.0 | 0.00 | 0.00 | 0.00 | 49 | 1009.0 |
| 20260504213030 | 74 | 252 | 13.0 | 20.0 | 0.00 | 0.00 | 0.00 | 49 | 1009.2 |
| 20260504211533 | 74 | 254 | 13.0 | 21.0 | 0.00 | 0.00 | 0.00 | 49 | 1009.3 |
| 20260504210030 | 74 | 261 | 11.0 | 22.0 | 0.00 | 0.00 | 0.00 | 49 | 1009.5 |
| 20260504204531 | 74 | 263 | 10.0 | 19.0 | 0.00 | 0.00 | 0.00 | 49 | 1009.7 |
| 20260504201530 | 74 | 257 | 7.0 | 15.0 | 0.00 | 0.00 | 0.00 | 49 | 1010.0 |
| 20260504200032 | 73 | 256 | 7.0 | 14.0 | 0.00 | 0.00 | 0.00 | 50 | 1010.2 |
| 20260504194532 | 73 | 256 | 9.0 | 19.0 | 0.00 | 0.00 | 0.00 | 50 | 1010.2 |
| 20260504191531 | 72 | 259 | 7.0 | 14.0 | 0.00 | 0.00 | 0.00 | 52 | 1010.4 |
| 20260504190031 | 71 | 265 | 7.0 | 16.0 | 0.00 | 0.00 | 0.00 | 54 | 1010.5 |
| 20260504184532 | 70 | 269 | 9.0 | 20.0 | 0.00 | 0.00 | 0.00 | 55 | 1010.6 |
| 20260504183030 | 69 | 269 | 9.0 | 18.0 | 0.00 | 0.00 | 0.00 | 56 | 1010.6 |
| 20260504181536 | 68 | 263 | 12.0 | 22.0 | 0.00 | 0.00 | 0.00 | 57 | 1010.6 |
| 20260504180030 | 68 | 264 | 14.0 | 24.0 | 0.00 | 0.00 | 0.00 | 58 | 1010.6 |
| 20260504174607 | 67 | 268 | 13.0 | 23.0 | 0.00 | 0.00 | 0.00 | 59 | 1010.7 |
| 20260504173031 | 66 | 263 | 12.0 | 22.0 | 0.00 | 0.00 | 0.00 | 60 | 1010.8 |
| 20260504171530 | 65 | 263 | 11.0 | 18.0 | 0.00 | 0.00 | 0.00 | 61 | 1010.8 |
| 20260504150145 | 59 | 270 | 10.0 | 18.0 | 0.00 | 0.00 | 0.00 | 73 | 1011.0 |
| 20260504130136 | 51 | 179 | 2.0 | 7.0 | 0.00 | 0.00 | 0.00 | 80 | 1010.2 |
| 20260504081530 | 59 | 142 | 6.0 | 8.0 | 0.00 | 0.00 | 0.00 | 62 | 1010.1 |